Rbgn^[z[y[W
メイン
   新天体発見情報
     Comet P/2017 S5 = 2021 L6 (ATLAS)
投稿するにはまず登録を

スレッド表示 | 新しいものから 前のトピック | 次のトピック | 下へ
投稿者 スレッド
佐藤裕久
投稿日時: 2021-8-18 22:52
モデレータ
登録日: 2005-6-12
居住地: 日本
投稿: 2669
オンライン
Comet P/2017 S5 = 2021 L6 (ATLAS)

M. Micheliの通報によると、6月9日-13日UT、H. H. Hsieh,、S. MargheimとL. Magill がチリの
Cerro PachonにあるGemini天文台の8.1-m "Gemini South" 望遠鏡で得た画像からP/2017 S5 
(CBET 4434参照)を検出した。
この彗星の外観について報告されなかったが、そのかすかさから恒星状と示唆する。

検出位置は次のとおり、

     2021 UT             R.A. (2000) Decl.       Mag.   Observer
     June  9.07200   12 53 33.18   -15 45 44.6   24.0   Hsieh
           9.07591   12 53 33.17   -15 45 43.7   24.7     "
           9.07981   12 53 33.17   -15 45 42.7   24.2     "
           9.08372   12 53 33.16   -15 45 41.3   24.1     "
          12.99975   12 53 36.20   -15 31 08.0   24.8     "
          13.00366   12 53 36.21   -15 31 07.2   24.8     "
          13.00758   12 53 36.24   -15 31 06.5   24.9     "
          13.01147   12 53 36.23   -15 31 05.6   24.4     "
          13.01538   12 53 36.23   -15 31 04.7   24.4     "
          13.01928   12 53 36.23   -15 31 03.9   24.7     "

NK 4193およびICQ's 2021 Comet Handbookの中野主一氏の予報に対し、Delta(T)は、
-0.25 dayであった。
MPC 114599のWilliamsの予報に対して、Delta(T)は、-0.117 dayであった。
MPC 125445のRudenkosの予報に対して、Delta(T)は、-0.115 dayであった。

MPCの連結軌道要素と位置推算表は次のとおり、

Orbital elements:
    P/2017 S5 (ATLAS)                                                           
Epoch 2017 July 26.0 TT = JDT 2457960.5                                         
T 2017 July 28.03075 TT                                 Rudenko                 
q   2.1782331            (2000.0)            P               Q                  
n   0.17457404     Peri.   99.94488     +0.97106733     +0.13683438             
a   3.1706595      Node   252.39324     -0.19695047     +0.92237538             
e   0.3130032      Incl.   11.84908     +0.13505094     +0.36124786             
P   5.65                                                                        
From 438 observations 2017 July 22-2021 June 13, mean residual 0".6.            
                                                                                
    P/2017 S5 (ATLAS)                                                           
Epoch 2023 Apr. 6.0 TT = JDT 2460040.5                                          
T 2023 Mar. 19.32948 TT                                 Rudenko                 
q   2.1704825            (2000.0)            P               Q                  
n   0.17479121     Peri.   99.97810     +0.97103143     +0.13702005             
a   3.1680327      Node   252.35011     -0.19711970     +0.92240090             
e   0.3148800      Incl.   11.85492     +0.13506218     +0.36111230             
P   5.64                                                                        
From 438 observations 2017 July 22-2021 June 13, mean residual 0".6.            
                                                                                
    P/2017 S5 (ATLAS)                                                           
Epoch 2021 July 5.0 TT = JDT 2459400.5                                          
T 2023 Mar. 19.35024 TT                                 Rudenko                 
q   2.1718841            (2000.0)            P               Q                  
n   0.17484668     Peri.   99.91647     +0.97092745     +0.13778475             
a   3.1673627      Node   252.36621     -0.19784778     +0.92222156             
e   0.3142926      Incl.   11.85255     +0.13474474     +0.36127934             
P   5.64                                                                        
From 438 observations 2017 July 22-2021 June 13, mean residual 0".6.            
                                                                                
Ephemeris:
Date    TT    R. A. (2000) Decl.     Delta      r    Elong.  Phase   m1    m2
2021 07 09    13 00 23.0 -14 38 02   3.5212  3.7123    92.8    15.9  22.4
...
2021 07 24    13 08 47.4 -14 40 13   3.7082  3.6792    80.5    15.8  22.5
...
2021 08 01    13 14 23.9 -14 49 53   3.8049  3.6611    74.2    15.5  22.5
...
2021 08 07    13 19 04.1 -15 00 35   3.8750  3.6473    69.6    15.1  22.6
2021 08 08    13 19 53.0 -15 02 38   3.8864  3.6450    68.8    15.0  22.6
2021 08 09    13 20 42.5 -15 04 46   3.8978  3.6427    68.1    15.0  22.6
...
2021 08 15    13 25 51.8 -15 18 59   3.9641  3.6287    63.6    14.5  22.6
...
2021 08 23    13 33 15.1 -15 41 31   4.0473  3.6097    57.7    13.7  22.6
...
2021 09 07    13 48 31.9 -16 32 49   4.1841  3.5734    47.0    11.9  22.6

(MPEC 2021-P79、CBET 5011、oaa-comet 2107)

スレッド表示 | 新しいものから 前のトピック | 次のトピック | トップ

投稿するにはまず登録を
 
© 1999 Tsutomu Seki.